Location: Prague
(50.0830°N, 14.4670°E)
Time: 11:15:02
(UTC+01:00)

AO-7 - Pass Details

Date: 10 December 2021
Orbit: 1440 x 1459 km, 101.9° (Epoch: 29 January)

Event Time Altitude Azimuth Distance (km) Brightness Sun altitude
Rises 06:14:07 0° 18° (NNE) 4,550 ? -14.4°
Reaches altitude 10° 06:17:07 10° 11° (N) 3,571 ? -14.0°
Maximum altitude 06:24:29 37° 308° (NW) 2,101 ? -12.9°
Drops below altitude 10° 06:31:52 10° 246° (WSW) 3,569 ? -11.8°
Sets 06:34:53 0° 238° (WSW) 4,547 ? -11.3°
